ATLAS CENTAUR 2 DEB, 739

Orbit data source: Space-Track

ATLAS CENTAUR 2 DEB, 739 is space debris in LEO originally from a launch on Wed, 27 Nov 1963 UTC launched from the Air Force Eastern Test Range (AFETR). Debris objects in space refer to the collection of defunct objects orbiting the Earth. Examples of debris include non-operational satellites, rocket bodies, and fragments generated from explosions, collisions, or faulty payload assembly.

Loading next visibility...
ATLAS CENTAUR 2 DEB details
Identifier
739, 1963-047H
Orbit
LEO
Last TLE update14 hours ago
Origin
Flag of USNASA LeRC (US)
ManufacturerGD/Convair
MissionSpacecraft
Bus & MotorCENTAUR PART, Unknown motor
MassUnknown
Launch date (UTC)
1963-11-27 (61 years ago)
Launch vehicleUnknown
Launch site
Air Force Eastern Test Range (AFETR)
Object type
Payload
Rocket body
Debris
Shape & HBRUnknown
Radar Cross Section0.290 m², Medium (>0.1 m² and < 1m²)

Expand to show TLE details & history

TLE from 14 hours ago
0 ATLAS CENTAUR 2 DEB
1 00739U 63047H   24356.67657126  .00001645  00000-0  26233-3 0  9994
2 00739  30.4218 116.1523 0638779 148.9083 215.0972 13.84393900 66122
Epoch: 2024-12-21T16:14Z
Definitive object data (Epoch: 2024-12-21T16:14:15.756Z)
Latitude-0.00001°
Longitude141.86233°
Altitude1,338.843 km
Speed6.996 km/s
True Right ascension07h 44m 36s
True Declination0° 00' 00"
Sunlit
Object was in full shadow at TLE epoch
Visualization TLE readout
Latitude16.34286°
Longitude168.53298°
Altitude1,158.524 km
Speed7.171 km/s
Apparent Right ascension12h 15m 41s
Apparent Declination-16° 29' 22"
Sunlit
Object is in full shadow
Visualization observer readout
Local Sidereal Time05:20:07
Azimuth94.3° ESE
Elevation-21.02°
Doppler factor1
Orbital elements
Apogee altitude1,420.31 km
Perigee altitude483.833 km
Semi-major axis7,330.208 km
Eccentricity0.0638779
Inclination30.4218°
RAAN116.1523°
Arg. of periapsis148.9083°
True anomaly211.15029°
Mean anomaly215.0972°
Eccentric anomaly213.09858°
Mean motion3.45835 °/min
BSTAR0.00026233
Orbital period104.1 mins
Loading maneuver chart data...

ATLAS CENTAUR 2 DEB Visibility forecast

Observer location: undefined°, undefined

Span
Click to sort rows by Start time (UTC) header in descending order
Start Az.
Max El. time (UTC)
Max El. Az.
Max El.
End time (UTC)
End Az.
8 mins2024-12-22 11:29:24.263Z204.186° SW2024-12-22 11:33:24.263Z168.684° S19.178°2024-12-22 11:37:24.263Z123.977° SE
7 mins2024-12-22 13:20:24.263Z223.312° SW2024-12-22 13:23:24.263Z185.514° SSW25.767°2024-12-22 13:27:24.263Z123.933° SE
6 mins2024-12-22 15:10:24.263Z237.484° WSW2024-12-22 15:13:24.263Z195.786° SSW22.359°2024-12-22 15:16:24.263Z144.94° SSE
|